• In Deutschland
  • Länderverzeichnis
  • Für 7 Tage
  • Wassertemperatur
  • Satellitenkarten
  • Wetterkarte
  • Widgets
  • user-avatar
    Anmelden

    Stündliche Wetter Saidpur

    Heute, 29 Juni, Donnerstag

    Zeit Temperatur Niederschläge Wind Luftdruck Luftfeuchtigkeit
    00:00 +30°C° 0 mm 2 m/S 749 mmHg 87%
    01:00 +30°C° 0,7 mm 2 m/S 749 mmHg 87%
    02:00 +30°C° 0,7 mm 2 m/S 749 mmHg 88%
    03:00 +29°C° 0,7 mm 2 m/S 748 mmHg 89%
    04:00 +29°C° 1,4 mm 2 m/S 748 mmHg 89%
    05:00 +29°C° 1,4 mm 2 m/S 748 mmHg 89%
    06:00 +29°C° 1,4 mm 2 m/S 748 mmHg 89%
    07:00 +30°C° 0,3 mm 2 m/S 748 mmHg 84%
    08:00 +31°C° 0,3 mm 2 m/S 749 mmHg 79%
    09:00 +34°C° 0,3 mm 2 m/S 749 mmHg 74%
    10:00 +35°C° 0,2 mm 2 m/S 748 mmHg 69%
    11:00 +36°C° 0,2 mm 2 m/S 748 mmHg 64%
    12:00 +37°C° 0,2 mm 2 m/S 748 mmHg 59%
    13:00 +37°C° 0,3 mm 3 m/S 747 mmHg 58%
    14:00 +37°C° 0,3 mm 3 m/S 746 mmHg 57%
    15:00 +38°C° 0,3 mm 3 m/S 746 mmHg 56%
    16:00 +37°C° 0,1 mm 2 m/S 746 mmHg 59%
    17:00 +37°C° 0,1 mm 2 m/S 745 mmHg 62%
    18:00 +36°C° 0,1 mm 2 m/S 745 mmHg 64%
    19:00 +35°C° 0,5 mm 2 m/S 746 mmHg 70%
    20:00 +32°C° 0,5 mm 2 m/S 746 mmHg 75%
    21:00 +31°C° 0,5 mm 3 m/S 746 mmHg 80%
    22:00 +31°C° 0,7 mm 3 m/S 747 mmHg 82%
    23:00 +31°C° 0,7 mm 3 m/S 747 mmHg 83%

    Morgen, 30 Juni, Freitag

    Zeit Temperatur Niederschläge Wind Luftdruck Luftfeuchtigkeit
    00:00 +30°C° 0,7 mm 3 m/S 747 mmHg 85%
    01:00 +30°C° 1 mm 3 m/S 747 mmHg 86%
    02:00 +30°C° 1 mm 3 m/S 746 mmHg 87%
    03:00 +29°C° 1 mm 3 m/S 746 mmHg 87%
    04:00 +29°C° 0,4 mm 2 m/S 746 mmHg 88%
    05:00 +29°C° 0,4 mm 2 m/S 746 mmHg 89%
    06:00 +29°C° 0,4 mm 2 m/S 746 mmHg 89%
    07:00 +30°C° 0,1 mm 2 m/S 746 mmHg 84%
    08:00 +31°C° 0,1 mm 3 m/S 746 mmHg 80%
    09:00 +33°C° 0,1 mm 3 m/S 747 mmHg 75%
    10:00 +34°C° 0,2 mm 3 m/S 746 mmHg 71%
    11:00 +35°C° 0,2 mm 3 m/S 746 mmHg 66%
    12:00 +36°C° 0,2 mm 3 m/S 746 mmHg 62%
    13:00 +36°C° 0,3 mm 3 m/S 745 mmHg 62%
    14:00 +36°C° 0,3 mm 3 m/S 745 mmHg 62%
    15:00 +36°C° 0,3 mm 3 m/S 744 mmHg 62%
    16:00 +36°C° 0,3 mm 3 m/S 744 mmHg 66%
    17:00 +35°C° 0,3 mm 3 m/S 744 mmHg 70%
    18:00 +34°C° 0,3 mm 3 m/S 744 mmHg 74%
    19:00 +33°C° 1,1 mm 3 m/S 745 mmHg 78%
    20:00 +31°C° 1,1 mm 3 m/S 746 mmHg 83%
    21:00 +30°C° 1,1 mm 3 m/S 746 mmHg 87%
    22:00 +30°C° 1 mm 3 m/S 746 mmHg 87%
    23:00 +30°C° 1 mm 3 m/S 746 mmHg 88%

    übermorgen, 1 Juli, Samstag

    Zeit Temperatur Niederschläge Wind Luftdruck Luftfeuchtigkeit
    00:00 +29°C° 1 mm 3 m/S 746 mmHg 89%
    01:00 +29°C° 2,4 mm 3 m/S 746 mmHg 90%
    02:00 +29°C° 2,4 mm 3 m/S 746 mmHg 91%
    03:00 +29°C° 2,4 mm 3 m/S 745 mmHg 92%
    04:00 +29°C° 5,1 mm 3 m/S 745 mmHg 93%
    05:00 +29°C° 5,1 mm 3 m/S 745 mmHg 94%
    06:00 +28°C° 5,1 mm 2 m/S 745 mmHg 95%
    07:00 +29°C° 2,8 mm 2 m/S 746 mmHg 92%
    08:00 +30°C° 2,8 mm 3 m/S 746 mmHg 90%
    09:00 +30°C° 2,8 mm 3 m/S 746 mmHg 88%
    10:00 +31°C° 0,7 mm 3 m/S 746 mmHg 86%
    11:00 +31°C° 0,7 mm 3 m/S 746 mmHg 85%
    12:00 +33°C° 0,7 mm 3 m/S 746 mmHg 83%
    13:00 +33°C° 0,3 mm 3 m/S 746 mmHg 81%
    14:00 +33°C° 0,3 mm 3 m/S 745 mmHg 79%
    15:00 +34°C° 0,3 mm 3 m/S 745 mmHg 78%
    16:00 +33°C° 0,3 mm 3 m/S 745 mmHg 80%
    17:00 +33°C° 0,3 mm 3 m/S 745 mmHg 82%
    18:00 +31°C° 0,3 mm 3 m/S 745 mmHg 84%
    19:00 +31°C° 1,7 mm 3 m/S 746 mmHg 86%
    20:00 +30°C° 1,7 mm 3 m/S 746 mmHg 88%
    21:00 +29°C° 1,7 mm 3 m/S 747 mmHg 90%
    22:00 +29°C° 0,3 mm 3 m/S 747 mmHg 91%
    23:00 +29°C° 0,3 mm 2 m/S 746 mmHg 92%

    2 Juli, Sonntag

    Zeit Temperatur Niederschläge Wind Luftdruck Luftfeuchtigkeit
    00:00 +29°C° 0,3 mm 2 m/S 746 mmHg 93%
    01:00 +29°C° 1 mm 2 m/S 746 mmHg 93%
    02:00 +29°C° 1 mm 2 m/S 745 mmHg 94%
    03:00 +28°C° 1 mm 2 m/S 745 mmHg 95%
    04:00 +28°C° 3,1 mm 2 m/S 745 mmHg 95%
    05:00 +28°C° 3,1 mm 2 m/S 745 mmHg 95%
    06:00 +28°C° 3,1 mm 2 m/S 746 mmHg 95%
    07:00 +29°C° 1,5 mm 2 m/S 746 mmHg 92%
    08:00 +30°C° 1,5 mm 2 m/S 746 mmHg 89%
    09:00 +31°C° 1,5 mm 2 m/S 747 mmHg 86%
    10:00 +33°C° 0,8 mm 3 m/S 746 mmHg 82%
    11:00 +34°C° 0,8 mm 3 m/S 746 mmHg 79%
    12:00 +35°C° 0,8 mm 3 m/S 746 mmHg 75%
    13:00 +35°C° 1,9 mm 3 m/S 746 mmHg 76%
    14:00 +34°C° 1,9 mm 3 m/S 745 mmHg 77%
    15:00 +34°C° 1,9 mm 3 m/S 745 mmHg 78%
    16:00 +33°C° 1,8 mm 3 m/S 745 mmHg 82%
    17:00 +31°C° 1,8 mm 3 m/S 745 mmHg 86%
    18:00 +30°C° 1,8 mm 2 m/S 746 mmHg 91%
    19:00 +30°C° 0,5 mm 2 m/S 746 mmHg 92%
    20:00 +29°C° 0,5 mm 3 m/S 747 mmHg 93%
    21:00 +29°C° 0,5 mm 3 m/S 747 mmHg 94%
    22:00 +29°C° 0,7 mm 2 m/S 747 mmHg 94%
    23:00 +28°C° 0,7 mm 2 m/S 747 mmHg 94%

    3 Juli, Montag

    Zeit Temperatur Niederschläge Wind Luftdruck Luftfeuchtigkeit
    00:00 +28°C° 0,7 mm 2 m/S 747 mmHg 94%
    01:00 +28°C° 0,4 mm 2 m/S 746 mmHg 94%
    02:00 +28°C° 0,4 mm 2 m/S 746 mmHg 95%
    03:00 +28°C° 0,4 mm 2 m/S 746 mmHg 95%
    04:00 +28°C° 0,1 mm 2 m/S 746 mmHg 95%
    05:00 +28°C° 0,1 mm 2 m/S 746 mmHg 95%
    06:00 +28°C° 0,1 mm 2 m/S 746 mmHg 95%
    07:00 +29°C° 0,2 mm 2 m/S 747 mmHg 91%
    08:00 +29°C° 0,2 mm 2 m/S 747 mmHg 88%
    09:00 +30°C° 0,2 mm 2 m/S 748 mmHg 85%
    10:00 +30°C° 1,2 mm 2 m/S 748 mmHg 85%
    11:00 +31°C° 1,2 mm 2 m/S 747 mmHg 85%
    12:00 +31°C° 1,2 mm 2 m/S 747 mmHg 85%
    13:00 +31°C° 0,9 mm 2 m/S 747 mmHg 84%
    14:00 +31°C° 0,9 mm 2 m/S 746 mmHg 83%
    15:00 +31°C° 0,9 mm 2 m/S 746 mmHg 83%
    16:00 +31°C° 0,3 mm 1 m/S 746 mmHg 84%
    17:00 +31°C° 0,3 mm 1 m/S 746 mmHg 85%
    18:00 +30°C° 0,3 mm 1 m/S 747 mmHg 86%
    19:00 +30°C° 0,8 mm 1 m/S 747 mmHg 87%
    20:00 +29°C° 0,8 mm 1 m/S 747 mmHg 89%
    21:00 +29°C° 0,8 mm 2 m/S 748 mmHg 91%
    22:00 +29°C° 1,9 mm 2 m/S 748 mmHg 91%
    23:00 +29°C° 1,9 mm 2 m/S 748 mmHg 92%

    4 Juli, Dienstag

    Zeit Temperatur Niederschläge Wind Luftdruck Luftfeuchtigkeit
    00:00 +29°C° 1,9 mm 2 m/S 747 mmHg 92%
    01:00 +28°C° 1 mm 2 m/S 747 mmHg 92%
    02:00 +28°C° 1 mm 2 m/S 747 mmHg 93%
    03:00 +28°C° 1 mm 2 m/S 746 mmHg 93%
    04:00 +28°C° 0,5 mm 2 m/S 747 mmHg 93%
    05:00 +28°C° 0,5 mm 2 m/S 747 mmHg 93%
    06:00 +28°C° 0,5 mm 2 m/S 747 mmHg 93%
    07:00 +29°C° 0,9 mm 2 m/S 748 mmHg 93%
    08:00 +29°C° 0,9 mm 1 m/S 748 mmHg 92%
    09:00 +29°C° 0,9 mm 1 m/S 748 mmHg 91%
    10:00 +30°C° 0,3 mm 1 m/S 748 mmHg 87%
    11:00 +31°C° 0,3 mm 1 m/S 748 mmHg 84%
    12:00 +31°C° 0,3 mm 1 m/S 748 mmHg 81%
    13:00 +32°C° 0,1 mm 1 m/S 748 mmHg 80%
    14:00 +32°C° 0,1 mm 1 m/S 747 mmHg 79%
    15:00 +32°C° 0,1 mm 1 m/S 747 mmHg 78%
    16:00 +31°C° 0 mm 1 m/S 747 mmHg 82%
    17:00 +31°C° 0 mm 1 m/S 747 mmHg 85%
    18:00 +30°C° 0 mm 1 m/S 747 mmHg 88%
    19:00 +30°C° 0,3 mm 1 m/S 748 mmHg 90%
    20:00 +29°C° 0,3 mm 1 m/S 748 mmHg 91%
    21:00 +29°C° 0,3 mm 1 m/S 748 mmHg 93%
    22:00 +29°C° 1 mm 1 m/S 748 mmHg 93%
    23:00 +29°C° 1 mm 1 m/S 748 mmHg 93%
    Mehr zeigen